This is the latest recevied weather packets stored in our database for station/object KB1JL-13. If no packets are shown the sender has not sent any weather packets the latest 10 day(s).
| Time | Temp. | Humidity | Pressure | Rain* | Wind** | Luminosity | Snow |
|---|---|---|---|---|---|---|---|
| 1777822321 | 11.67° C | 53% | 1020.9 hPa | 0 mm | - | 383 W/m² | - |
| 1777822018 | 11.67° C | 55% | 1020.9 hPa | 0 mm | - | 806 W/m² | - |
| 1777821716 | 11.11° C | 55% | 1020.9 hPa | 0 mm | - | 903 W/m² | - |
| 1777821413 | 10.56° C | 55% | 1020.9 hPa | 0 mm | - | 897 W/m² | - |
| 1777821110 | 10° C | 56% | 1020.5 hPa | 0 mm | - | 421 W/m² | - |
| 1777820807 | 10.56° C | 55% | 1020.9 hPa | 0 mm | - | 172 W/m² | - |
| 1777820503 | 10.56° C | 55% | 1020.9 hPa | 0 mm | - | 188 W/m² | - |
| 1777820200 | 10° C | 56% | 1020.9 hPa | 0 mm | - | 213 W/m² | - |
| 1777819898 | 9.44° C | 56% | 1020.9 hPa | 0 mm | - | 234 W/m² | - |
| 1777819595 | 9.44° C | 57% | 1020.9 hPa | 0 mm | - | 187 W/m² | - |
| 1777819293 | 10° C | 57% | 1020.9 hPa | 0 mm | - | 133 W/m² | - |
| 1777818989 | 10.56° C | 56% | 1020.5 hPa | 0 mm | - | 206 W/m² | - |
| 1777818686 | 11.11° C | 55% | 1020.9 hPa | 0 mm | - | 159 W/m² | - |
| 1777818382 | 11.11° C | 57% | 1020.9 hPa | 0 mm | - | 708 W/m² | - |
| 1777818079 | 10.56° C | 57% | 1020.9 hPa | 0 mm | - | 333 W/m² | - |
| 1777817776 | 10° C | 58% | 1020.9 hPa | 0 mm | - | 264 W/m² | - |
| 1777817474 | 9.44° C | 59% | 1020.9 hPa | 0 mm | - | 441 W/m² | - |
| 1777817169 | 10° C | 58% | 1020.9 hPa | 0 mm | - | 215 W/m² | - |
| 1777816868 | 10.56° C | 59% | 1020.5 hPa | 0 mm | - | 234 W/m² | - |
| 1777816564 | 10° C | 60% | 1020.9 hPa | 0 mm | - | 715 W/m² | - |
| 1777816261 | 10° C | 60% | 1020.9 hPa | 0 mm | - | 623 W/m² | - |
| 1777815958 | 9.44° C | 61% | 1021.2 hPa | 0 mm | - | 647 W/m² | - |
| 1777815656 | 8.89° C | 62% | 1021.2 hPa | 0 mm | - | 636 W/m² | - |
| 1777815353 | 8.33° C | 65% | 1021.2 hPa | 0 mm | - | 283 W/m² | - |
| 1777815050 | 8.89° C | 62% | 1020.9 hPa | 0 mm | - | 287 W/m² | - |
* Rain latest hour (hover to see other rain measurements)
** Current wind speed in m/s (hover to see current wind gust speed)